Left ArrowRight Arrow

Hourly Observations for March 26, 2020

Temp ( °F °C ) Dew Point ( °F °C ) Humidity (%) Winds ( mph kmh ) Pressure ( in mb ) Visibility ( mi km ) Precip ( " mm )
12:12 am 00:12 Cloudy 32 0 27 -2.8 82 82 Calm 29.83 1010 10 16 0.00 0.00
12:53 am 00:53 Cloudy 32 0 27 -2.8 82 82 ESE 3 6 29.75 1008 10 16 0.00 0.00
1:07 am 01:07 Cloudy 32 0 27 -2.8 82 82 ESE 3 6 29.83 1010 10 16 0.00 0.00
1:15 am 01:15 Cloudy 32 0 27 -2.8 82 82 ESE 6 9 29.82 1010 10 16 0.00 0.00
1:53 am 01:53 Cloudy 32 0 28 -2.2 85 85 SE 8 13 29.72 1007 10 16 0.00 0.00
2:43 am 02:43 Cloudy 33 0.6 28 -2.2 82 82 S 9 15 29.79 1009 10 16 0.00 0.00
2:53 am 02:53 Cloudy 33 0.6 28 -2.2 82 82 S 10 17 29.71 1006 10 16 0.00 0.00
3:21 am 03:21 Partly Cloudy 32 0 28 -2.2 85 85 SSE 12 19 29.79 1009 10 16 0.00 0.00
3:53 am 03:53 Clear 31 -0.6 27 -2.8 85 85 SSE 6 9 29.70 1006 10 16 0.00 0.00
4:53 am 04:53 Clear 30 -1.1 27 -2.8 88 88 S 3 6 29.70 1006 10 16 0.00 0.00
5:46 am 05:46 Mostly Clear 28 -2.2 24 -4.4 85 85 N 5 7 29.81 1010 10 16 0.00 0.00
5:53 am 05:53 Clear 27 -2.8 23 -5 85 85 NNW 3 6 29.72 1006 10 16 0.00 0.00
6:53 am 06:53 Clear 26 -3.3 22 -5.6 84 84 W 7 11 29.74 1007 10 16 0.00 0.00
7:43 am 07:43 Partly Cloudy with Mist and Fog 26 -3.3 22 -5.6 84 84 NNW 12 19 29.87 1011 2 3 0.00 0.00
7:50 am 07:50 Mostly Cloudy with Freezing Fog 27 -3 25 -4 93 93 NNW 15 24 29.86 1011 0 0 0.00 0.00
7:53 am 07:53 Mostly Cloudy with Freezing Fog 28 -2.2 25 -3.9 88 88 NNW 13 20 29.76 1008 0 0 0.00 0.00
8:03 am 08:03 Mostly Cloudy with Mist and Fog 27 -2.8 24 -4.4 89 89 NNW 13 20 29.86 1011 1 2 0.00 0.00
8:05 am 08:05 Mostly Cloudy with Mist and Fog 27 -2.8 24 -4.4 89 89 NNW 12 19 29.86 1011 4 6 0.00 0.00
8:20 am 08:20 Mostly Sunny 28 -2.2 24 -4.4 85 85 NNW 15 24 29.84 1011 10 16 0.00 0.00
8:53 am 08:53 Sunny 31 -0.6 25 -3.9 79 79 NW 10 17 29.76 1008 10 16 0.00 0.00
9:53 am 09:53 Partly Cloudy 33 0.6 23 -5 66 66 N 17 28 29.76 1008 10 16 0.00 0.00
10:53 am 10:53 Sunny 37 2.8 24 -4.4 59 59 N 16 26 29.75 1008 10 16 0.00 0.00
11:53 am 11:53 Mostly Cloudy 39 3.9 23 -5 53 53 NNW 15 24 29.74 1007 10 16 0.00 0.00
12:53 pm 12:53 Mostly Sunny 42 5.6 23 -5 47 47 NNW 14 22 29.72 1006 10 16 0.00 0.00
1:53 pm 13:53 Cloudy 39 3.9 20 -6.7 46 46 NNW 8 13 29.73 1007 10 16 0.00 0.00
2:53 pm 14:53 Cloudy 40 4.4 22 -5.6 49 49 N 12 19 29.71 1006 10 16 0.00 0.00
3:53 pm 15:53 Cloudy 40 4.4 21 -6.1 47 47 N 8 13 29.71 1006 10 16 0.00 0.00
4:53 pm 16:53 Cloudy 41 5 22 -5.6 47 47 N 6 9 29.71 1006 10 16 0.00 0.00
5:53 pm 17:53 Mostly Cloudy 38 3.3 22 -5.6 52 52 WNW 5 7 29.73 1007 10 16 0.00 0.00
6:53 pm 18:53 Cloudy 38 3.3 23 -5 55 55 N 5 7 29.76 1008 10 16 0.00 0.00
7:53 pm 19:53 Cloudy 34 1.1 28 -2.2 79 79 SW 5 7 29.76 1008 10 16 0.00 0.00
8:53 pm 20:53 Mostly Cloudy 34 1.1 26 -3.3 73 73 Calm 29.77 1008 10 16 0.00 0.00
9:53 pm 21:53 Partly Cloudy 34 1.1 25 -3.9 70 70 S 3 6 29.77 1008 10 16 0.00 0.00
10:53 pm 22:53 Mostly Cloudy 33 0.6 24 -4.4 70 70 Calm 29.77 1008 10 16 0.00 0.00
11:53 pm 23:53 Clear 30 -1.1 22 -5.6 72 72 Calm 29.77 1008 10 16 0.00 0.00

Powered by Vaisala Xweather